User: anonymous   Login
Location: Unspecified
(0.0000°N, 0.0000°E)
Time: 00:14:09
(UTC+00:00)
Language:

RADARSAT 2 - Orbit

View from above orbital plane
View from above orbital plane
View from above satellite
View from above satellite

Ground track
Ground track

The orbit data is extracted from the following two-line orbital elements,

1 32382U 07061A   18112.59054005 +.00000214 +00000-0 +10000-3 0  9994
2 32382 098.5770 120.6733 0001227 089.6915 018.3270 14.29985278540519
Epoch (UTC): 22 April 2018 14:10:22
Eccentricity: 0.0001227
inclination: 98.5770°
perigee height: 791 km
apogee height: 792 km
right ascension of ascending node: 120.6733°
argument of perigee: 89.6915°
revolutions per day: 14.29985278
mean anomaly at epoch: 18.3270°
orbit number at epoch: 54051

The dashed part of the orbit path shows where the satellite is in the earth's shadow,  

DLR